RYR8EJ LEMD-LEPA

Flight info

Callsign RYR8EJ
Flight time 1h 7m
Altitude 25000
Route NANDO T257 LASPO M871 GODOX
Aircraft B738/M-SDE2E3FGHIRWXY/LB1

Departure

Time 2026-05-04 19:39
Airport Adolfo Suárez Madrid–Barajas Airport (LEMD)

Arrival

Time 2026-05-04 20:46
Airport Palma de Mallorca Airport (LEPA)
Time Latitude Longitude Altitude Speed Heading
2026-05-04 19:12 40.46460 -3.56811 1959 ft 0 kts 274°
2026-05-04 19:21 40.46460 -3.56808 1959 ft 1 kts 274°
2026-05-04 19:22 40.46458 -3.56785 1959 ft 3 kts 274°
2026-05-04 19:22 40.46457 -3.56759 1959 ft 3 kts 274°
2026-05-04 19:22 40.46456 -3.56732 1959 ft 3 kts 274°
2026-05-04 19:22 40.46455 -3.56710 1959 ft 3 kts 276°
2026-05-04 19:23 40.46450 -3.56688 1958 ft 3 kts 313°
2026-05-04 19:23 40.46436 -3.56677 1958 ft 3 kts 356°
2026-05-04 19:23 40.46421 -3.56677 1958 ft 1 kts
2026-05-04 19:26 40.46459 -3.56674 1958 ft 13 kts
2026-05-04 19:26 40.46468 -3.56674 1959 ft 0 kts
2026-05-04 19:28 40.46472 -3.56673 1959 ft 4 kts
2026-05-04 19:28 40.46548 -3.56668 1960 ft 18 kts
2026-05-04 19:28 40.46700 -3.56656 1963 ft 23 kts
2026-05-04 19:29 40.46855 -3.56643 1966 ft 22 kts
2026-05-04 19:29 40.46994 -3.56709 1970 ft 21 kts 322°
2026-05-04 19:29 40.47103 -3.56835 1974 ft 21 kts 316°
2026-05-04 19:29 40.47222 -3.56928 1975 ft 20 kts 354°
2026-05-04 19:30 40.47337 -3.56847 1980 ft 19 kts 53°
2026-05-04 19:30 40.47445 -3.56808 1981 ft 19 kts 322°
2026-05-04 19:30 40.47547 -3.56913 1984 ft 18 kts 322°
2026-05-04 19:30 40.47645 -3.57014 1984 ft 18 kts 322°
2026-05-04 19:31 40.47740 -3.57110 1986 ft 17 kts 322°
2026-05-04 19:31 40.47843 -3.57214 1988 ft 21 kts 322°
2026-05-04 19:31 40.47972 -3.57345 1992 ft 25 kts 322°
2026-05-04 19:31 40.48122 -3.57497 1997 ft 29 kts 322°
2026-05-04 19:32 40.48277 -3.57656 2001 ft 27 kts 322°
2026-05-04 19:32 40.48404 -3.57745 2003 ft 17 kts 26°
2026-05-04 19:32 40.48449 -3.57611 2002 ft 16 kts 80°
2026-05-04 19:32 40.48532 -3.57530 2001 ft 16 kts 29°
2026-05-04 19:33 40.48602 -3.57418 1999 ft 16 kts 52°
2026-05-04 19:33 40.48674 -3.57297 1996 ft 18 kts 52°
2026-05-04 19:33 40.48768 -3.57167 1992 ft 22 kts 91°
2026-05-04 19:33 40.48767 -3.56923 1988 ft 30 kts 89°
2026-05-04 19:34 40.48769 -3.56646 1982 ft 31 kts 90°
2026-05-04 19:34 40.48769 -3.56352 1967 ft 33 kts 90°
2026-05-04 19:34 40.48784 -3.56157 1963 ft 17 kts 47°
2026-05-04 19:34 40.48897 -3.56140 1958 ft 16 kts 359°
2026-05-04 19:35 40.49029 -3.56142 1956 ft 23 kts 359°
2026-05-04 19:35 40.49191 -3.56145 1955 ft 23 kts
2026-05-04 19:35 40.49350 -3.56143 1954 ft 22 kts
2026-05-04 19:35 40.49504 -3.56146 1954 ft 18 kts 360°
2026-05-04 19:36 40.49618 -3.56145 1954 ft 16 kts
2026-05-04 19:36 40.49727 -3.56145 1954 ft 15 kts
2026-05-04 19:36 40.49831 -3.56146 1953 ft 15 kts 359°
2026-05-04 19:36 40.49932 -3.56146 1952 ft 14 kts
2026-05-04 19:37 40.50029 -3.56145 1951 ft 14 kts 359°
2026-05-04 19:37 40.50112 -3.56113 1950 ft 13 kts 57°
2026-05-04 19:37 40.50137 -3.55999 1948 ft 13 kts 64°
2026-05-04 19:37 40.50202 -3.55923 1948 ft 13 kts 12°
2026-05-04 19:38 40.50238 -3.55921 1948 ft 0 kts 359°
2026-05-04 19:38 40.50256 -3.55921 1948 ft 18 kts 359°
2026-05-04 19:39 40.50648 -3.55925 1948 ft 94 kts 360°
2026-05-04 19:39 40.51535 -3.55932 1943 ft 157 kts 359°
2026-05-04 19:39 40.52677 -3.55944 2485 ft 170 kts 357°
2026-05-04 19:39 40.53885 -3.55949 3329 ft 171 kts 357°
2026-05-04 19:40 40.55062 -3.55960 4243 ft 172 kts 357°
2026-05-04 19:40 40.56370 -3.55970 4597 ft 204 kts 358°
2026-05-04 19:40 40.57839 -3.55980 4992 ft 220 kts 358°
2026-05-04 19:40 40.59394 -3.55881 5566 ft 230 kts
2026-05-04 19:41 40.60983 -3.55352 6165 ft 240 kts 13°
2026-05-04 19:41 40.62601 -3.54731 6961 ft 244 kts 14°
2026-05-04 19:41 40.64228 -3.54032 7739 ft 254 kts 24°
2026-05-04 19:41 40.65625 -3.52423 8042 ft 284 kts 59°
2026-05-04 19:42 40.66496 -3.50038 8752 ft 294 kts 55°
2026-05-04 19:42 40.67926 -3.48105 9611 ft 296 kts 39°
2026-05-04 19:42 40.69469 -3.46262 10375 ft 305 kts 43°
2026-05-04 19:42 40.71047 -3.44218 10641 ft 331 kts 44°
2026-05-04 19:43 40.72699 -3.41982 11143 ft 346 kts 47°
2026-05-04 19:43 40.73930 -3.39273 11807 ft 354 kts 73°
2026-05-04 19:43 40.74237 -3.36058 12637 ft 355 kts 97°
2026-05-04 19:43 40.73589 -3.32929 13435 ft 354 kts 120°
2026-05-04 19:44 40.72219 -3.30236 14182 ft 354 kts 130°
2026-05-04 19:44 40.70638 -3.27783 14840 ft 355 kts 144°
2026-05-04 19:44 40.68536 -3.26122 15556 ft 351 kts 161°
2026-05-04 19:44 40.66270 -3.24910 16303 ft 353 kts 163°
2026-05-04 19:45 40.63961 -3.23735 16999 ft 358 kts 163°
2026-05-04 19:45 40.61619 -3.22547 17708 ft 363 kts 163°
2026-05-04 19:45 40.59244 -3.21327 18387 ft 367 kts 163°
2026-05-04 19:45 40.56855 -3.20085 19016 ft 371 kts 163°
2026-05-04 19:46 40.54440 -3.18820 19648 ft 375 kts 163°
2026-05-04 19:46 40.52042 -3.17557 20322 ft 376 kts 163°
2026-05-04 19:46 40.49621 -3.16278 21124 ft 374 kts 163°
2026-05-04 19:46 40.47215 -3.15009 21956 ft 371 kts 164°
2026-05-04 19:47 40.44820 -3.13748 22728 ft 370 kts 164°
2026-05-04 19:47 40.42423 -3.12489 23452 ft 370 kts 165°
2026-05-04 19:47 40.40083 -3.11121 24059 ft 377 kts 154°
2026-05-04 19:47 40.37984 -3.08985 24685 ft 383 kts 146°
2026-05-04 19:48 40.35976 -3.06663 24976 ft 386 kts 144°
2026-05-04 19:48 40.33985 -3.04317 24998 ft 384 kts 144°
2026-05-04 19:48 40.31989 -3.01978 25005 ft 385 kts 145°
2026-05-04 19:48 40.29974 -2.99645 25016 ft 385 kts 145°
2026-05-04 19:49 40.27951 -2.97324 25013 ft 386 kts 146°
2026-05-04 19:49 40.25948 -2.95042 25024 ft 387 kts 146°
2026-05-04 19:49 40.23910 -2.92727 25020 ft 387 kts 146°
2026-05-04 19:49 40.21875 -2.90419 25016 ft 388 kts 146°
2026-05-04 19:50 40.19831 -2.88103 25014 ft 388 kts 146°
2026-05-04 19:50 40.17790 -2.85791 25008 ft 387 kts 146°
2026-05-04 19:50 40.15747 -2.83480 25011 ft 387 kts 146°
2026-05-04 19:50 40.13817 -2.81000 24990 ft 395 kts 132°
2026-05-04 19:51 40.12526 -2.77797 25014 ft 404 kts 112°
2026-05-04 19:51 40.11703 -2.74327 25023 ft 405 kts 110°
2026-05-04 19:51 40.10936 -2.70789 25011 ft 405 kts 109°
2026-05-04 19:51 40.10177 -2.67226 25009 ft 405 kts 109°
2026-05-04 19:52 40.09412 -2.63679 25011 ft 405 kts 110°
2026-05-04 19:52 40.08635 -2.60147 25012 ft 404 kts 110°
2026-05-04 19:52 40.07846 -2.56615 25010 ft 404 kts 110°
2026-05-04 19:52 40.07052 -2.53096 25010 ft 404 kts 110°
2026-05-04 19:53 40.06265 -2.49632 25018 ft 404 kts 110°
2026-05-04 19:53 40.05465 -2.46122 25019 ft 403 kts 110°
2026-05-04 19:53 40.04662 -2.42606 25011 ft 404 kts 110°
2026-05-04 19:53 40.03859 -2.39093 25016 ft 404 kts 110°
2026-05-04 19:54 40.03054 -2.35578 25027 ft 404 kts 110°
2026-05-04 19:54 40.02250 -2.32068 25014 ft 405 kts 110°
2026-05-04 19:54 40.01441 -2.28541 25008 ft 405 kts 110°
2026-05-04 19:54 40.00631 -2.25014 25016 ft 404 kts 110°
2026-05-04 19:55 39.99834 -2.21550 25017 ft 404 kts 110°
2026-05-04 19:55 39.99017 -2.18034 25015 ft 403 kts 112°
2026-05-04 19:55 39.97917 -2.14702 25028 ft 397 kts 122°
2026-05-04 19:55 39.96592 -2.11540 25023 ft 396 kts 125°
2026-05-04 19:56 39.95217 -2.08431 25027 ft 396 kts 125°
2026-05-04 19:56 39.93852 -2.05358 25020 ft 396 kts 125°
2026-05-04 19:56 39.92479 -2.02232 25004 ft 397 kts 125°
2026-05-04 19:56 39.91116 -1.99089 25026 ft 397 kts 124°
2026-05-04 19:57 39.89766 -1.95946 25019 ft 398 kts 124°
2026-05-04 19:57 39.88424 -1.92804 25019 ft 398 kts 124°
2026-05-04 19:57 39.87077 -1.89644 25009 ft 398 kts 124°
2026-05-04 19:57 39.85736 -1.86497 25021 ft 398 kts 124°
2026-05-04 19:58 39.84387 -1.83333 25016 ft 399 kts 124°
2026-05-04 19:58 39.83055 -1.80212 25014 ft 399 kts 124°
2026-05-04 19:58 39.81707 -1.77058 25016 ft 399 kts 124°
2026-05-04 19:58 39.80358 -1.73905 25009 ft 399 kts 124°
2026-05-04 19:59 39.79004 -1.70743 25014 ft 399 kts 124°
2026-05-04 19:59 39.77650 -1.67583 25012 ft 399 kts 124°
2026-05-04 19:59 39.76296 -1.64430 25007 ft 399 kts 124°
2026-05-04 19:59 39.74956 -1.61309 25010 ft 399 kts 124°
2026-05-04 20:00 39.73602 -1.58159 25005 ft 399 kts 124°
2026-05-04 20:00 39.72244 -1.55007 25001 ft 399 kts 124°
2026-05-04 20:00 39.70890 -1.51866 25008 ft 399 kts 124°
2026-05-04 20:00 39.69530 -1.48716 25018 ft 399 kts 124°
2026-05-04 20:01 39.68169 -1.45568 25013 ft 399 kts 124°
2026-05-04 20:01 39.66806 -1.42416 25016 ft 400 kts 124°
2026-05-04 20:01 39.65907 -1.40339 25021 ft 400 kts 124°
2026-05-04 20:01 39.64545 -1.37194 25019 ft 400 kts 124°
2026-05-04 20:02 39.63183 -1.34051 25020 ft 400 kts 124°
2026-05-04 20:02 39.61375 -1.29884 25011 ft 399 kts 124°
2026-05-04 20:02 39.60014 -1.26750 25019 ft 398 kts 124°
2026-05-04 20:02 39.59113 -1.24677 25019 ft 398 kts 124°
2026-05-04 20:03 39.57752 -1.21547 25024 ft 398 kts 124°
2026-05-04 20:03 39.56393 -1.18426 25021 ft 398 kts 124°
2026-05-04 20:03 39.55026 -1.15294 25016 ft 399 kts 124°
2026-05-04 20:03 39.53666 -1.12170 25015 ft 399 kts 124°
2026-05-04 20:04 39.52305 -1.09040 25010 ft 399 kts 124°
2026-05-04 20:04 39.50941 -1.05904 25006 ft 399 kts 124°
2026-05-04 20:04 39.49577 -1.02770 25001 ft 399 kts 124°
2026-05-04 20:04 39.48210 -0.99631 25005 ft 399 kts 125°
2026-05-04 20:05 39.46858 -0.96529 24991 ft 400 kts 125°
2026-05-04 20:05 39.45483 -0.93381 24985 ft 400 kts 125°
2026-05-04 20:05 39.44111 -0.90241 24976 ft 400 kts 125°
2026-05-04 20:05 39.42744 -0.87110 24983 ft 399 kts 125°
2026-05-04 20:06 39.41375 -0.83977 24974 ft 400 kts 125°
2026-05-04 20:06 39.40004 -0.80854 24971 ft 399 kts 125°
2026-05-04 20:06 39.38629 -0.77736 24973 ft 399 kts 125°
2026-05-04 20:06 39.37252 -0.74619 24974 ft 398 kts 125°
2026-05-04 20:07 39.35879 -0.71513 24971 ft 398 kts 125°
2026-05-04 20:07 39.34506 -0.68407 24968 ft 398 kts 126°
2026-05-04 20:07 39.33135 -0.65307 24966 ft 398 kts 125°
2026-05-04 20:07 39.31778 -0.62242 24965 ft 397 kts 126°
2026-05-04 20:08 39.30404 -0.59142 24976 ft 397 kts 126°
2026-05-04 20:08 39.29226 -0.55898 24963 ft 404 kts 112°
2026-05-04 20:08 39.28575 -0.52349 24968 ft 409 kts 101°
2026-05-04 20:08 39.28480 -0.48665 24967 ft 412 kts 89°
2026-05-04 20:09 39.28664 -0.44973 24969 ft 413 kts 88°
2026-05-04 20:09 39.28894 -0.41279 24967 ft 413 kts 87°
2026-05-04 20:09 39.29132 -0.37586 24967 ft 413 kts 88°
2026-05-04 20:09 39.29357 -0.33938 24968 ft 413 kts 88°
2026-05-04 20:10 39.29572 -0.30238 24968 ft 413 kts 88°
2026-05-04 20:10 39.29777 -0.26536 24967 ft 413 kts 89°
2026-05-04 20:10 39.29974 -0.22837 24965 ft 413 kts 89°
2026-05-04 20:10 39.30166 -0.19137 24967 ft 413 kts 89°
2026-05-04 20:11 39.30356 -0.15431 24967 ft 413 kts 89°
2026-05-04 20:11 39.30544 -0.11728 24965 ft 414 kts 89°
2026-05-04 20:11 39.30731 -0.08016 24964 ft 414 kts 89°
2026-05-04 20:11 39.30918 -0.04301 24966 ft 414 kts 89°
2026-05-04 20:12 39.31102 -0.00622 24966 ft 415 kts 89°
2026-05-04 20:12 39.31286 0.03095 24965 ft 415 kts 89°
2026-05-04 20:12 39.31470 0.06819 24962 ft 415 kts 89°
2026-05-04 20:12 39.31653 0.10547 24965 ft 415 kts 89°
2026-05-04 20:13 39.31835 0.14275 24962 ft 416 kts 89°
2026-05-04 20:13 39.32015 0.17996 24965 ft 416 kts 89°
2026-05-04 20:13 39.32194 0.21721 24963 ft 416 kts 89°
2026-05-04 20:13 39.32373 0.25455 24967 ft 416 kts 90°
2026-05-04 20:14 39.32550 0.29184 24960 ft 416 kts 90°
2026-05-04 20:14 39.32726 0.32920 24966 ft 416 kts 90°
2026-05-04 20:14 39.32901 0.36652 24964 ft 416 kts 90°
2026-05-04 20:14 39.33075 0.40381 24965 ft 416 kts 90°
2026-05-04 20:15 39.33245 0.44070 24964 ft 416 kts 90°
2026-05-04 20:15 39.33416 0.47799 24967 ft 416 kts 90°
2026-05-04 20:15 39.33585 0.51525 24962 ft 416 kts 90°
2026-05-04 20:15 39.33753 0.55258 24970 ft 416 kts 90°
2026-05-04 20:16 39.33920 0.58991 24966 ft 416 kts 90°
2026-05-04 20:16 39.34087 0.62731 24972 ft 416 kts 90°
2026-05-04 20:16 39.34251 0.66458 24971 ft 416 kts 90°
2026-05-04 20:16 39.34414 0.70158 24974 ft 416 kts 90°
2026-05-04 20:17 39.34576 0.73892 24973 ft 416 kts 90°
2026-05-04 20:17 39.34738 0.77621 24968 ft 416 kts 90°
2026-05-04 20:17 39.34899 0.81365 24967 ft 413 kts 90°
2026-05-04 20:17 39.35057 0.85060 24962 ft 409 kts 91°
2026-05-04 20:18 39.35213 0.88729 24958 ft 408 kts 91°
2026-05-04 20:18 39.35365 0.92361 24981 ft 409 kts 91°
2026-05-04 20:18 39.35517 0.96041 24818 ft 411 kts 91°
2026-05-04 20:18 39.35669 0.99726 24520 ft 409 kts 91°
2026-05-04 20:19 39.35820 1.03394 24189 ft 408 kts 91°
2026-05-04 20:19 39.35969 1.07042 23836 ft 406 kts 91°
2026-05-04 20:19 39.36116 1.10671 23486 ft 404 kts 91°
2026-05-04 20:19 39.36261 1.14296 23066 ft 403 kts 91°
2026-05-04 20:20 39.36405 1.17902 22683 ft 400 kts 91°
2026-05-04 20:20 39.36546 1.21482 22313 ft 398 kts 91°
2026-05-04 20:20 39.36686 1.25046 21955 ft 395 kts 91°
2026-05-04 20:20 39.36823 1.28583 21604 ft 392 kts 91°
2026-05-04 20:21 39.36957 1.32049 21256 ft 390 kts 91°
2026-05-04 20:21 39.37091 1.35546 20906 ft 388 kts 91°
2026-05-04 20:21 39.37399 1.42462 20223 ft 385 kts 86°
2026-05-04 20:22 39.37777 1.45889 19879 ft 384 kts 83°
2026-05-04 20:22 39.38247 1.49282 19535 ft 382 kts 82°
2026-05-04 20:22 39.38735 1.52650 19194 ft 380 kts 82°
2026-05-04 20:22 39.39214 1.56014 18856 ft 379 kts 82°
2026-05-04 20:23 39.39670 1.59315 18529 ft 377 kts 82°
2026-05-04 20:23 39.40121 1.62663 18166 ft 376 kts 82°
2026-05-04 20:23 39.40561 1.65996 17785 ft 375 kts 83°
2026-05-04 20:23 39.40994 1.69314 17425 ft 372 kts 83°
2026-05-04 20:24 39.41421 1.72608 17071 ft 370 kts 83°
2026-05-04 20:24 39.41844 1.75881 16733 ft 367 kts 83°
2026-05-04 20:24 39.42262 1.79127 16399 ft 365 kts 83°
2026-05-04 20:24 39.42677 1.82359 16066 ft 362 kts 83°
2026-05-04 20:25 39.43083 1.85523 15739 ft 360 kts 83°
2026-05-04 20:25 39.43491 1.88714 15410 ft 358 kts 83°
2026-05-04 20:25 39.43896 1.91884 15111 ft 355 kts 83°
2026-05-04 20:25 39.44294 1.95006 14866 ft 350 kts 83°
2026-05-04 20:26 39.44689 1.98104 14615 ft 345 kts 83°
2026-05-04 20:26 39.45075 2.01149 14375 ft 341 kts 83°
2026-05-04 20:26 39.45538 2.04148 14126 ft 338 kts 76°
2026-05-04 20:26 39.46244 2.07033 13896 ft 335 kts 71°
2026-05-04 20:27 39.47029 2.09856 13649 ft 333 kts 71°
2026-05-04 20:27 39.47819 2.12665 13386 ft 330 kts 71°
2026-05-04 20:27 39.48591 2.15455 13129 ft 328 kts 71°
2026-05-04 20:27 39.49333 2.18196 12866 ft 326 kts 72°
2026-05-04 20:28 39.50073 2.20971 12605 ft 325 kts 72°
2026-05-04 20:28 39.50802 2.23731 12355 ft 323 kts 72°
2026-05-04 20:28 39.51526 2.26487 12102 ft 322 kts 72°
2026-05-04 20:28 39.52243 2.29226 11860 ft 321 kts 72°
2026-05-04 20:29 39.52958 2.31963 11609 ft 320 kts 72°
2026-05-04 20:29 39.53672 2.34696 11367 ft 319 kts 72°
2026-05-04 20:29 39.54372 2.37383 11126 ft 318 kts 72°
2026-05-04 20:29 39.55153 2.40067 10870 ft 318 kts 62°
2026-05-04 20:30 39.56326 2.42488 10647 ft 316 kts 54°
2026-05-04 20:30 39.57591 2.44828 10412 ft 316 kts 53°
2026-05-04 20:30 39.58863 2.47147 10172 ft 315 kts 54°
2026-05-04 20:30 39.60114 2.49439 9948 ft 314 kts 54°
2026-05-04 20:31 39.61365 2.51751 9680 ft 311 kts 54°
2026-05-04 20:31 39.62596 2.54044 9421 ft 308 kts 54°
2026-05-04 20:31 39.63801 2.56332 9159 ft 306 kts 58°
2026-05-04 20:31 39.64749 2.58800 8907 ft 303 kts 66°
2026-05-04 20:32 39.65589 2.61291 8646 ft 300 kts 66°
2026-05-04 20:32 39.66408 2.63773 8387 ft 298 kts 66°
2026-05-04 20:32 39.67206 2.66216 8142 ft 296 kts 67°
2026-05-04 20:32 39.68005 2.68678 8032 ft 298 kts 67°
2026-05-04 20:33 39.68812 2.71173 8004 ft 299 kts 67°
2026-05-04 20:33 39.69611 2.73661 7999 ft 297 kts 68°
2026-05-04 20:33 39.70307 2.76178 7990 ft 295 kts 71°
2026-05-04 20:33 39.70952 2.78674 7979 ft 294 kts 71°
2026-05-04 20:34 39.71606 2.81232 7760 ft 301 kts 72°
2026-05-04 20:34 39.72261 2.83827 7507 ft 302 kts 72°
2026-05-04 20:34 39.72906 2.86402 7276 ft 298 kts 72°
2026-05-04 20:34 39.73543 2.88943 7028 ft 294 kts 72°
2026-05-04 20:35 39.74167 2.91464 6764 ft 292 kts 72°
2026-05-04 20:35 39.74782 2.93961 6532 ft 288 kts 72°
2026-05-04 20:35 39.75403 2.96403 6282 ft 286 kts 67°
2026-05-04 20:35 39.76235 2.98741 6062 ft 285 kts 63°
2026-05-04 20:36 39.77119 3.01047 5998 ft 284 kts 62°
2026-05-04 20:36 39.78005 3.03343 5980 ft 282 kts 62°
2026-05-04 20:36 39.78874 3.05578 5953 ft 270 kts 62°
2026-05-04 20:36 39.79708 3.07703 5953 ft 257 kts 62°
2026-05-04 20:37 39.80496 3.09731 5946 ft 245 kts 62°
2026-05-04 20:37 39.81214 3.11708 5968 ft 248 kts 73°
2026-05-04 20:37 39.81189 3.14050 6006 ft 274 kts 112°
2026-05-04 20:37 39.80110 3.16060 6004 ft 272 kts 148°
2026-05-04 20:38 39.78407 3.16944 6014 ft 261 kts 179°
2026-05-04 20:38 39.76641 3.16680 5768 ft 255 kts 206°
2026-05-04 20:38 39.75194 3.15443 5495 ft 246 kts 227°
2026-05-04 20:38 39.74075 3.13824 5235 ft 243 kts 232°
2026-05-04 20:39 39.73018 3.12159 4953 ft 234 kts 232°
2026-05-04 20:39 39.72010 3.10584 4854 ft 219 kts 232°
2026-05-04 20:39 39.71063 3.09116 4749 ft 205 kts 233°
2026-05-04 20:39 39.70278 3.07637 4650 ft 194 kts 240°
2026-05-04 20:40 39.69595 3.06149 4596 ft 191 kts 240°
2026-05-04 20:40 39.68921 3.04673 4526 ft 185 kts 240°
2026-05-04 20:40 39.68287 3.03297 4450 ft 174 kts 240°
2026-05-04 20:40 39.67661 3.01949 4300 ft 173 kts 240°
2026-05-04 20:41 39.67043 3.00623 4129 ft 171 kts 240°
2026-05-04 20:41 39.66421 2.99294 4025 ft 172 kts 239°
2026-05-04 20:41 39.65811 2.97988 3992 ft 169 kts 240°
2026-05-04 20:41 39.65188 2.96629 3652 ft 175 kts 239°
2026-05-04 20:42 39.64566 2.95294 3410 ft 167 kts 239°
2026-05-04 20:42 39.63965 2.94018 3179 ft 163 kts 239°
2026-05-04 20:42 39.63386 2.92791 2970 ft 160 kts 239°
2026-05-04 20:42 39.62801 2.91552 2751 ft 162 kts 238°
2026-05-04 20:43 39.62202 2.90286 2541 ft 166 kts 239°
2026-05-04 20:43 39.61599 2.89008 2301 ft 164 kts 238°
2026-05-04 20:43 39.61023 2.87790 2097 ft 155 kts 238°
2026-05-04 20:43 39.60474 2.86627 1893 ft 147 kts 237°
2026-05-04 20:44 39.59952 2.85521 1711 ft 139 kts 238°
2026-05-04 20:44 39.59457 2.84471 1517 ft 135 kts 237°
2026-05-04 20:44 39.58970 2.83439 1376 ft 133 kts 237°
2026-05-04 20:44 39.58481 2.82407 1187 ft 137 kts 239°
2026-05-04 20:45 39.57973 2.81329 986 ft 141 kts 237°
2026-05-04 20:45 39.57458 2.80251 847 ft 142 kts 237°
2026-05-04 20:45 39.56938 2.79126 622 ft 147 kts 238°
2026-05-04 20:45 39.56401 2.78002 411 ft 145 kts 238°
2026-05-04 20:46 39.55888 2.76906 215 ft 140 kts 238°
2026-05-04 20:46 39.55388 2.75841 36 ft 137 kts 238°
2026-05-04 20:46 39.54958 2.74930 29 ft 91 kts 238°
2026-05-04 20:46 39.54741 2.74471 29 ft 30 kts 239°
2026-05-04 20:47 39.54629 2.74229 29 ft 28 kts 238°
2026-05-04 20:47 39.54563 2.74031 29 ft 23 kts 256°
2026-05-04 20:47 39.54552 2.73847 29 ft 10 kts 270°
2026-05-04 20:47 39.54552 2.73823 29 ft 0 kts 270°
2026-05-04 20:48 39.54552 2.73822 29 ft 0 kts 270°
2026-05-04 20:48 39.54552 2.73821 29 ft 0 kts 270°
2026-05-04 20:49 39.54552 2.73812 29 ft 3 kts 270°
2026-05-04 20:49 39.54553 2.73735 29 ft 14 kts 278°
2026-05-04 20:49 39.54587 2.73649 29 ft 16 kts 317°
2026-05-04 20:49 39.54610 2.73627 29 ft 3 kts 322°
2026-05-04 20:50 39.54627 2.73565 29 ft 10 kts 290°
2026-05-04 20:50 39.54664 2.73524 29 ft 11 kts 328°
2026-05-04 20:50 39.54731 2.73472 29 ft 11 kts 329°
2026-05-04 20:50 39.54795 2.73385 29 ft 8 kts 284°
2026-05-04 20:51 39.54795 2.73340 29 ft 0 kts 264°